Location: Zeddiani
(39.9908°N, 8.5953°E)
Time: 02:28:37
(UTC+00:00)

Daily predictions for brighter satellites

Satellite Brightness Start Highest point End
(mag) Time Altitude Azimuth Time Altitude Azimuth Time Altitude Azimuth
CENTAUR R/B 4.4 02:02:59 24° NE 02:02:59 24° NE 02:05:42 10° NE
Cosmos 2344 4.1 02:37:40 49° NNE 02:37:40 49° NNE 02:43:19 10° NNE
ATLAS 3B R/B 3.9 02:45:38 28° SE 02:47:35 34° ESE 02:53:23 10° NE
ADEOS Rocket 3.7 02:54:41 10° SE 02:59:51 45° ENE 03:05:08 10° N
USA 234 4.5 02:54:54 10° NE 02:59:22 28° N 02:59:22 28° N
Cosmos 44 Rocket 4.1 03:14:19 53° ESE 03:14:19 53° ESE 03:18:29 10° SE
NOSS 3-3 (A) 4.4 03:13:32 71° WSW 03:13:38 71° WSW 03:22:03 10° SSE
NOSS 3-3 (C) 4.4 03:13:33 71° WSW 03:13:45 71° WSW 03:22:09 10° SSE
H-2A R/B 4.5 03:24:15 10° SSE 03:24:58 15° SSE 03:24:58 15° SSE
Cosmos 1833 Rocket 2.5 03:33:51 74° SSW 03:34:24 87° WNW 03:40:05 10° NNE
CZ-4B R/B 3.7 03:31:36 10° SE 03:34:26 24° ENE 03:37:09 11° NNE
ALOS 3.6 03:32:24 10° NNE 03:36:48 40° E 03:41:10 10° SSE
SL-14 R/B 4.5 03:34:29 11° SSE 03:38:07 42° E 03:41:55 10° NNE
Cosmos 1626 3.4 03:39:55 37° NE 03:39:55 37° NE 03:42:24 10° NNE
NOSS 3-2 (C) 4.3 03:43:22 32° NNW 03:43:22 32° NNW 03:48:31 10° NNE
CENTAUR R/B 3.3 03:50:12 33° NW 03:50:15 33° NW 03:56:30 10° NNE
Meteor 1-24 Rocket 4.2 03:48:34 10° S 03:54:02 61° E 03:59:46 10° NNE
Cosmos 2369 3.9 03:49:32 10° NNW 03:55:12 71° ENE 04:00:49 10° SSE
Cosmos 1656 3.8 03:55:16 50° W 03:55:45 52° WSW 04:01:14 10° S
Cosmos 2082 Rocket 2.2 03:52:15 13° SSW 03:57:18 81° ESE 04:02:55 10° NNE
Cosmos 1461 3.0 03:57:50 64° WNW 03:58:00 65° WNW 04:02:40 10° NNE
Cosmos 1484 Rocket 3.0 03:55:25 10° NNE 03:59:15 67° E 04:03:00 10° S
CBERS 1 LM4 rocket 4.2 03:55:07 10° N 03:59:58 68° WNW 04:02:24 29° SSW
USA 290 2.4 04:06:41 62° NNE 04:06:41 62° NNE 04:09:27 10° NNE
ISS -2.1 04:09:06 25° N 04:09:06 25° N 04:11:16 10° NE
Cosmos 2251 Rocket 3.5 04:03:09 10° SSW 04:08:31 89° ESE 04:13:54 10° NNE
CZ-2C R/B 2.9 04:04:43 10° N 04:08:51 37° WNW 04:08:51 37° WNW
Lacrosse 4 Rocket 3.6 04:18:22 12° NNW 04:18:22 12° NNW 04:18:52 10° NNW
Cosmos 1697 Rocket 2.7 04:16:50 11° NNW 04:22:07 59° WSW 04:27:39 10° S
COSMOS 2406 4.0 04:21:37 28° WNW 04:22:20 29° WNW 04:27:12 10° N
Meteor 1-31 Rocket 2.7 04:20:04 10° N 04:24:01 83° WNW 04:27:55 10° SSW
[s.n.46727] 4.1 04:25:26 25° N 04:25:26 25° N 04:27:14 10° NNE
[s.n.46723] 4.0 04:25:27 26° N 04:25:27 26° N 04:27:22 10° NNE
[s.n.46707] 4.1 04:25:36 25° N 04:25:36 25° N 04:27:25 10° NNE
[s.n.46708] 4.1 04:25:41 25° N 04:25:41 25° N 04:27:29 10° NNE
[s.n.46719] 4.1 04:25:47 25° N 04:25:47 25° N 04:27:35 10° NNE
[s.n.46724] 4.1 04:25:52 25° N 04:25:52 25° N 04:27:40 10° NNE
[s.n.46687] 4.1 04:25:57 25° N 04:25:57 25° N 04:27:45 10° NNE
[s.n.46696] 4.1 04:26:02 25° N 04:26:02 25° N 04:27:51 10° NNE
[s.n.46720] 4.1 04:26:08 25° N 04:26:08 25° N 04:27:56 10° NNE
Meteor 2-5 Rocket 3.8 04:20:01 10° SSW 04:25:34 55° WNW 04:31:17 10° N
Lacrosse 5 rocket 2.6 04:25:46 21° NNW 04:25:46 21° NNW 04:28:31 10° NNE
[s.n.46676] 4.1 04:26:12 25° N 04:26:12 25° N 04:28:01 10° NNE
[s.n.46721] 4.1 04:26:18 25° N 04:26:18 25° N 04:28:07 10° NNE
[s.n.46728] 4.1 04:26:23 25° N 04:26:23 25° N 04:28:12 10° NNE
[s.n.46690] 4.1 04:26:28 24° N 04:26:28 24° N 04:28:18 10° NNE
[s.n.46694] 4.1 04:26:32 25° N 04:26:32 25° N 04:28:22 10° NNE
[s.n.46702] 4.1 04:26:39 24° N 04:26:39 24° N 04:28:29 10° NNE
[s.n.46679] 4.1 04:26:42 25° N 04:26:42 25° N 04:28:33 10° NNE
[s.n.46704] 4.0 04:26:44 25° N 04:26:44 25° N 04:28:40 10° NNE
[s.n.46712] 4.1 04:26:50 24° N 04:26:50 24° N 04:28:41 10° NNE
[s.n.46711] 4.1 04:26:59 24° N 04:26:59 24° N 04:28:49 10° NNE
[s.n.46684] 4.1 04:27:01 24° N 04:27:01 24° N 04:28:52 10° NNE
[s.n.46706] 4.1 04:27:09 24° N 04:27:09 24° N 04:29:00 10° NNE
[s.n.46678] 4.0 04:27:07 25° NNW 04:27:07 25° NNW 04:29:05 10° NNE
[s.n.46677] 4.1 04:27:17 24° N 04:27:17 24° N 04:29:08 10° NNE
[s.n.46671] 4.1 04:27:22 24° N 04:27:22 24° N 04:29:14 10° NNE
[s.n.46675] 4.1 04:27:27 24° N 04:27:27 24° N 04:29:19 10° NNE
[s.n.46674] 4.1 04:27:32 24° N 04:27:32 24° N 04:29:25 10° NNE
[s.n.46698] 4.1 04:27:38 24° N 04:27:38 24° N 04:29:30 10° NNE
[s.n.46699] 4.0 04:27:39 25° NNW 04:27:39 25° NNW 04:29:37 10° NNE
[s.n.46715] 4.1 04:27:48 24° N 04:27:48 24° N 04:29:41 10° NNE
[s.n.46714] 4.1 04:27:53 24° N 04:27:53 24° N 04:29:46 10° NNE
[s.n.46726] 4.1 04:27:59 24° N 04:27:59 24° N 04:29:52 10° NNE
[s.n.46703] 4.1 04:28:03 24° N 04:28:03 24° N 04:29:57 10° NNE
[s.n.46713] 4.1 04:28:09 24° NNW 04:28:09 24° NNW 04:30:03 10° NNE
[s.n.46717] 4.1 04:28:14 24° NNW 04:28:14 24° NNW 04:30:08 10° NNE
[s.n.46691] 4.0 04:28:16 25° NNW 04:28:16 25° NNW 04:30:15 10° NNE
[s.n.46693] 4.1 04:28:25 24° NNW 04:28:25 24° NNW 04:30:19 10° NNE
[s.n.46672] 4.1 04:28:30 24° NNW 04:28:30 24° NNW 04:30:24 10° NNE
[s.n.46701] 4.1 04:28:35 24° NNW 04:28:35 24° NNW 04:30:30 10° NNE
[s.n.46685] 4.1 04:28:41 24° NNW 04:28:41 24° NNW 04:30:35 10° NNE
[s.n.46709] 4.1 04:28:46 24° NNW 04:28:46 24° NNW 04:30:41 10° NNE
[s.n.46683] 4.1 04:28:50 24° NNW 04:28:50 24° NNW 04:30:45 10° NNE
[s.n.46695] 4.0 04:28:55 24° NNW 04:28:55 24° NNW 04:30:50 10° NNE
[s.n.46688] 4.1 04:29:02 24° NNW 04:29:02 24° NNW 04:30:57 10° NNE
[s.n.46729] 4.0 04:29:06 24° NNW 04:29:06 24° NNW 04:31:01 10° NNE
[s.n.46697] 4.1 04:29:09 24° NNW 04:29:09 24° NNW 04:31:04 10° NNE
CZ-4B R/B 3.5 04:24:42 10° NNE 04:28:45 60° E 04:32:59 10° S
[s.n.46725] 4.1 04:29:14 24° NNW 04:29:14 24° NNW 04:31:09 10° NNE
[s.n.46682] 4.1 04:29:19 24° NNW 04:29:19 24° NNW 04:31:15 10° NNE
[s.n.46680] 4.1 04:29:25 24° NNW 04:29:25 24° NNW 04:31:21 10° NNE
[s.n.46718] 4.0 04:29:30 24° NNW 04:29:30 24° NNW 04:31:26 10° NNE
[s.n.46710] 4.1 04:29:35 24° NNW 04:29:35 24° NNW 04:31:31 10° NNE
[s.n.46673] 4.0 04:29:46 24° NNW 04:29:46 24° NNW 04:31:42 10° NNE
[s.n.46700] 4.0 04:29:51 24° NNW 04:29:51 24° NNW 04:31:48 10° NNE
[s.n.46705] 4.1 04:29:56 24° NNW 04:29:56 24° NNW 04:31:53 10° NNE
[s.n.46692] 4.0 04:30:02 24° NNW 04:30:02 24° NNW 04:32:00 10° NNE
[s.n.46686] 4.0 04:30:07 24° NNW 04:30:07 24° NNW 04:32:05 10° NNE
[s.n.46716] 4.0 04:30:12 24° NNW 04:30:12 24° NNW 04:32:10 10° NNE
[s.n.46722] 4.0 04:30:17 24° NNW 04:30:17 24° NNW 04:32:15 10° NNE
[s.n.46689] 4.0 04:30:23 24° NNW 04:30:23 24° NNW 04:32:21 10° NNE
[s.n.46681] 4.0 04:30:28 24° NNW 04:30:28 24° NNW 04:32:26 10° NNE
FENGYUN 3A 3.7 04:26:06 10° N 04:31:26 59° WNW 04:36:46 10° SSW
SAR-Lupe-4 3.4 04:32:06 10° S 04:35:39 74° WSW 04:39:14 10° NNW
ERS-2 2.8 04:34:16 10° SSW 04:37:33 32° W 04:39:17 21° NW
ATLAS 3B R/B 2.9 04:32:59 16° WSW 04:38:02 46° NW 04:44:25 10° NNE
Cosmos 1726 Rocket 3.6 04:37:14 10° NNW 04:41:37 56° W 04:45:58 10° S
ATLAS CENTAUR R/B 3.0 04:40:10 10° S 04:43:46 33° ESE 04:47:14 10° NE
Cosmos 967 Rocket 4.5 04:38:09 10° NW 04:44:20 60° WSW 04:50:27 10° SSE
Geosat 4.3 04:39:57 10° S 04:44:45 46° WSW 04:49:36 10° NW
Cosmos 1092 Rocket 4.1 04:38:49 10° SSW 04:44:47 52° W 04:50:52 10° N
Cosmos 1980 Rocket 2.1 04:39:21 10° NNW 04:44:56 74° WSW 04:50:30 10° SSE
Abrixas rocket 2.6 04:43:59 21° NW 04:45:35 46° NNE 04:48:20 10° ESE
ADEOS Rocket 3.8 04:41:33 10° SW 04:45:40 21° W 04:49:50 10° NW
Cosmos 2228 3.6 04:42:42 10° NNW 04:46:40 34° W 04:50:38 10° SSW
Cosmos 407 Rocket 3.8 04:45:39 10° S 04:50:43 70° ESE 04:55:51 10° NNE
ADEOS 4.1 04:47:37 10° N 04:52:21 35° WNW 04:57:03 10° SW
Cosmos 1140 Rocket 4.2 04:48:27 10° S 04:53:28 58° ESE 04:58:29 10° NNE
SAR-Lupe-1 4.3 04:50:08 10° S 04:53:33 45° W 04:57:00 10° NNW
Aureole 3 3.8 04:50:53 10° NNW 04:55:14 64° W 05:00:46 10° S
CZ-3 R/B 3.5 04:35:59 12° WSW 04:55:53 45° SSW 05:02:20 10° ESE
Cosmos 1606 Rocket 4.4 04:53:29 10° NNW 04:57:20 29° W 05:01:10 10° SSW
Cosmos 1400 Rocket 3.2 04:54:23 10° NNW 04:58:04 40° W 05:01:42 10° SSW
COSMO-SKYMED 1 2.7 04:59:31 10° S 05:03:46 54° W 05:08:03 10° NNW
CZ-4B R/B 3.0 05:04:18 10° SW 05:06:39 17° W 05:09:00 10° NW
Cosmos 2292 Rocket 3.5 05:05:04 10° S 05:08:02 58° E 05:11:35 10° NNE
Cosmos 1655 Rocket 4.4 05:02:23 10° S 05:08:37 73° E 05:14:56 10° N
S3M 4.4 05:03:53 10° N 05:10:12 70° E 05:16:33 10° SSE
Cosmos 1300 4.0 05:08:36 10° NW 05:11:26 20° W 05:14:15 10° SW
Cosmos 1689 Rocket 2.9 05:10:40 10° SSW 05:13:18 30° W 05:15:55 10° NW
ALOS 3.5 05:10:29 10° NNW 05:13:55 21° WNW 05:17:20 10° WSW
Cosmos 2278 4.2 05:10:04 10° NW 05:15:15 38° WSW 05:20:25 10° S
Meteor 2-10 Rocket 3.4 05:11:26 10° NNW 05:16:27 74° W 05:21:33 10° S
Cosmos 2322 Rocket 3.3 05:11:28 10° NNW 05:16:58 47° ENE 05:22:22 10° SE
OE (NEXTSAT) 4.3 05:13:38 10° WSW 05:17:07 77° NNW 05:20:37 10° ENE
MOS 1 Rocket 3.8 05:14:50 10° SSE 05:19:02 58° ENE 05:23:15 10° N
Cosmos 1833 Rocket 4.3 05:16:13 10° W 05:19:10 14° NW 05:22:07 10° NNW
NOAA 6 4.3 05:17:41 10° NNE 05:22:51 75° ESE 05:27:58 10° S
